Alexandria, LA

3:10 PM CDT on May 23, 2017 (GMT -0500)
Alexandria International

Weather History for KAEX - January, 2004

Change the Weather History Date:

Sunday, January 4, 2004

  Actual Average Record
Temperature  
Mean Temperature 68 °F 49 °F  
Max Temperature 77 °F 59 °F 81 °F (1989)
Min Temperature 55 °F 39 °F 11 °F (1911)
Degree Days  
Heating Degree Days 0 16  
Month to date heating degree days 64  
Since 1 July heating degree days 853  
Cooling Degree Days 4    
Growing Degree Days 18 (Base 50)    
Moisture  
Dew Point 64 °F    
Average Humidity 84    
Maximum Humidity 94    
Minimum Humidity 60    
Precipitation  
Precipitation 0.07 in 0.17 in 2.25 in (2007)
Month to date precipitation 0.58  
Year to date precipitation 0.58  
Snow  
Snow 0.00 in - 0.00 in ()
Month to date snowfall  
Since 1 July snowfall  
Snow Depth -    
Sea Level Pressure  
Sea Level Pressure 29.92 in    
Wind  
Wind Speed 9 mph (South)    
Max Wind Speed 17 mph    
Max Gust Speed 23 mph    
Visibility 10 miles    
Events Rain , Thunderstorm    
T = Trace of Precipitation, MM = Missing Value Source: NWS Daily Summary

Daily Weather History Graph

Daily Weather History Graph

Search for Another Location

Airport or City:

Trip Planner

Search our weather history database for the weather conditions in past years. The results will help you decide how hot, cold, wet, or windy it might be!

Date:

Astronomy

Jan. 04, 2004 Rise Set
Actual Time 7:09 AM CST 5:20 PM CST
Civil Twilight 6:43 AM CST 5:47 PM CST
Nautical Twilight 6:12 AM CST 6:17 PM CST
Astronomical Twilight 5:43 AM CST 6:46 PM CST
Moon 2:57 PM CST (1/4) 4:41 AM CST (1/4)
Length of Visible Light 11h 03m
Length of Day
10h 10m
Waxing Gibbous, 92% of the Moon is Illuminated
Jan 4
Waxing Gibbous
Jan 7
Full
Jan 14
Last Quarter
Jan 21
New
Jan 29
First Quarter

Hourly Weather History & Observations

Time (CST) Temp. Dew Point Humidity Pressure Visibility Wind Dir Wind Speed Gust Speed Precip Events Conditions
12:53 AM 68.0 °F 64.0 °F 87% 29.94 in 10.0 mi South 9.2 mph - N/A   Mostly Cloudy
1:02 AM 68.0 °F 64.4 °F 88% 29.93 in 10.0 mi South 6.9 mph - N/A   Scattered Clouds
1:53 AM 66.9 °F 64.0 °F 90% 29.93 in 10.0 mi South 8.1 mph - N/A   Mostly Cloudy
2:34 AM 68.0 °F 64.4 °F 88% 29.93 in 10.0 mi South 5.8 mph - N/A   Overcast
2:53 AM 66.9 °F 64.0 °F 90% 29.93 in 10.0 mi SSE 6.9 mph - N/A   Overcast
3:53 AM 66.9 °F 64.9 °F 93% 29.93 in 10.0 mi SSE 6.9 mph - N/A   Overcast
4:06 AM 66.2 °F 64.4 °F 94% 29.92 in 10.0 mi SSE 6.9 mph - N/A   Mostly Cloudy
4:27 AM 66.2 °F 64.4 °F 94% 29.92 in 10.0 mi SSE 5.8 mph - N/A   Overcast
4:53 AM 66.9 °F 64.9 °F 93% 29.92 in 10.0 mi SSE 8.1 mph - N/A   Overcast
5:14 AM 66.2 °F 64.4 °F 94% 29.91 in 10.0 mi SSE 8.1 mph - N/A   Overcast
5:53 AM 66.9 °F 64.9 °F 93% 29.92 in 10.0 mi SSE 8.1 mph - N/A   Overcast
6:19 AM 66.2 °F 64.4 °F 94% 29.91 in 10.0 mi SSE 10.4 mph - N/A   Overcast
6:53 AM 66.9 °F 64.9 °F 93% 29.91 in 10.0 mi SSE 9.2 mph - N/A   Scattered Clouds
7:53 AM 68.0 °F 64.9 °F 90% 29.91 in 10.0 mi South 11.5 mph - N/A   Clear
8:53 AM 69.1 °F 64.9 °F 87% 29.93 in 10.0 mi South 10.4 mph - N/A   Clear
9:53 AM 73.0 °F 61.0 °F 66% 29.95 in 10.0 mi South 13.8 mph - N/A   Clear
10:53 AM 75.0 °F 62.1 °F 64% 29.95 in 10.0 mi SW 16.1 mph 21.9 mph N/A   Clear
11:53 AM 77.0 °F 62.1 °F 60% 29.92 in 10.0 mi South 17.3 mph 23.0 mph N/A   Partly Cloudy
12:53 PM 75.9 °F 62.1 °F 62% 29.91 in 10.0 mi South 16.1 mph - N/A   Mostly Cloudy
1:53 PM 75.0 °F 63.0 °F 66% 29.91 in 10.0 mi SSW 15.0 mph - N/A   Overcast
2:53 PM 75.0 °F 63.0 °F 66% 29.91 in 10.0 mi South 11.5 mph 19.6 mph N/A   Overcast
3:53 PM 73.9 °F 64.0 °F 71% 29.91 in 10.0 mi South 10.4 mph - N/A   Overcast
4:53 PM 73.9 °F 63.0 °F 68% 29.90 in 10.0 mi South 10.4 mph - 0.00 in   Overcast
5:53 PM 73.0 °F 64.0 °F 73% 29.90 in 10.0 mi South 9.2 mph - 0.00 in Rain , Thunderstorm Light Rain
6:11 PM 71.6 °F 64.4 °F 78% 29.90 in 10.0 mi South 9.2 mph - 0.00 in Rain Light Rain
6:53 PM 70.0 °F 64.9 °F 84% 29.90 in 10.0 mi South 3.5 mph - 0.02 in   Overcast
7:53 PM 70.0 °F 66.0 °F 87% 29.89 in 10.0 mi SSW 4.6 mph - 0.00 in   Overcast
8:53 PM 69.1 °F 66.9 °F 93% 29.91 in 10.0 mi SSW 4.6 mph - N/A   Overcast
9:18 PM 69.8 °F 66.2 °F 88% 29.90 in 10.0 mi West 3.5 mph - N/A   Overcast
9:36 PM 69.8 °F 66.2 °F 88% 29.91 in 10.0 mi SSW 5.8 mph - N/A   Overcast
9:42 PM 69.8 °F 66.2 °F 88% 29.91 in 10.0 mi South 4.6 mph - N/A   Overcast
9:53 PM 69.1 °F 66.9 °F 93% 29.93 in 10.0 mi SSW 5.8 mph - N/A   Overcast
10:11 PM 64.4 °F 62.6 °F 94% 29.92 in 6.0 mi NNW 11.5 mph 20.7 mph 0.02 in Rain Light Rain
10:32 PM 62.6 °F 60.8 °F 94% 29.92 in 10.0 mi NW 12.7 mph - 0.02 in   Overcast
10:53 PM 60.1 °F 57.9 °F 93% 29.94 in 10.0 mi NW 17.3 mph - 0.02 in   Overcast
11:53 PM 55.9 °F 54.0 °F 93% 29.98 in 5.0 mi NW 16.1 mph - 0.03 in Rain Light Rain